Regional Weather Roundup
Issued by NWS

Home | Current Version | Previous Version | Graphics & Text | Print | Product List | Glossary On
Versions: 1 2 3 4 5 6 7 8 9 10 11 12 13 14 15 16 17 18 19 20 21 22 23 24 25 26 27 28 29 30 31 32 33 34 35 36 37 38 39 40 41 42 43 44 45 46 47 48 49 50
000
ASUS43 KOAX 030102
RWRNE

WEATHER ROUNDUP FOR NEBRASKA
NATIONAL WEATHER SERVICE OMAHA NE
800 PM CDT SUN AUG 02 2015

NOTES: SATELLITE DATA IS BEING USED TO AUGMENT CLOUD COVER ABOVE
       12000 FEET.
       "FAIR" INDICATES FEW OR NO CLOUDS BELOW 12,000 FEET WITH NO
       SIGNIFICANT WEATHER AND/OR OBSTRUCTIONS TO VISIBILITY.

  * THESE STATIONS DO NOT REPORT WEATHER SUCH AS RAIN...SNOW OR FOG.

NEZ001>004-019>022-054>056-030200-
NEBRASKA PANHANDLE

CITY           SKY/WX    TMP DP  RH WIND       PRES   REMARKS
SCOTTSBLUFF    MOSUNNY   86  52  30 SE5       29.96S
ALLIANCE       PTSUNNY   81  58  45 E8        29.94F
CHADRON        MOSUNNY   85  57  38 NE14      29.93S
KIMBALL        PTSUNNY   83  47  28 SE7       30.02S
SIDNEY         MOSUNNY   86  48  26 SE5       30.00F
$$

NEZ057>060-069>072-079>082-030200-
SOUTHWEST NEBRASKA

CITY           SKY/WX    TMP DP  RH WIND       PRES   REMARKS
NORTH PLATTE   MOCLDY    76  61  59 SE13      29.91R
IMPERIAL       PTSUNNY   83  54  36 E10       29.94S
LEXINGTON      CLOUDY    80  56  43 SE7       29.90F
MCCOOK         CLOUDY    83  56  39 S15G22    29.92F
$$

NEZ005>010-023>029-035>040-094-030200-
NORTH CENTRAL NEBRASKA

CITY           SKY/WX    TMP DP  RH WIND       PRES   REMARKS
BROKEN BOW     CLEAR     81  56  42 S3        29.90F
ORD            MOCLDY    80  60  50 W5        29.89S
$$

NEZ041-046>049-061>064-073>077-083>087-030200-
SOUTH CENTRAL NEBRASKA

CITY           SKY/WX    TMP DP  RH WIND       PRES   REMARKS
GRAND ISLAND   CLOUDY    81  61  50 N7        29.86F
AURORA         CLOUDY    81  67  62 N8        29.87R
HASTINGS       CLOUDY    82  53  36 W8        29.87S
KEARNEY *      CLOUDY    81  54  39 SW3       29.88F
YORK           CLOUDY    82  77  83 CALM      29.84F HX  91
$$

NEZ011>018-030>034-042>045-030200-
NORTHEAST NEBRASKA

CITY           SKY/WX    TMP DP  RH WIND       PRES   REMARKS
NORFOLK        CLEAR     84  66  54 NE12      29.85R
BLAIR          PTCLDY    84  72  67 N7        29.82R
COLUMBUS *     MOCLDY    82  70  65 E5        29.83F
TEKAMAH        CLEAR     84  74  71 N8        29.81R HX  91
$$

NEZ050>053-065>068-078-088>093-030200-
SOUTHEAST NEBRASKA

CITY           SKY/WX    TMP DP  RH WIND       PRES   REMARKS
LINCOLN        CLOUDY    88  74  63 W15       29.79F HX  96
OMAHA EPPLEY   MOCLDY    87  76  69 N7        29.80R HX  97
FALLS CITY     MOCLDY    85  75  72 S6        29.81R HX  93
$$

NEZ044-045-051>053-067-030200-
OMAHA AREA

CITY           SKY/WX    TMP DP  RH WIND       PRES   REMARKS
OMAHA EPPLEY   MOCLDY    87  76  69 N7        29.80R HX  97
BLAIR          PTCLDY    84  72  67 N7        29.82R
$$


USA.gov is the U.S. government's official web portal to all federal, state and local government web resources and services.